Tracking 29494 objects as of 8-Sep-2024
HD Live streaming from Space Station
objects crossing your sky now

COSMOS 1174

Track COSMOS 1174 now!
10-day predictions
COSMOS 1174 is classified as:


NORAD ID: 11765
Int'l Code: 1980-030A
Perigee: 376.3 km
Apogee: 1,086.3 km
Inclination: 66.1 °
Period: 99.3 minutes
Semi major axis: 7102 km
RCS: 4.5129 m2 (large)
Launch date: April 18, 1980
Source: Commonwealth of Independent States (former USSR) (CIS)
Launch site: TYURATAM MISSILE AND SPACE COMPLEX (TTMTR)
Your satellite tracking list
Your tracking list is empty




NASA's NSSDC Master Catalog

Two Line Element Set (TLE):
1 11765U 80030A   24251.91914045  .00007039  00000-0  33665-3 0  9993
2 11765  66.0817 239.7593 0499778 148.2931 214.9337 14.50456850284786
Source of the keplerian elements: AFSPC